When you browse on this site, cookies collect data to enhance your experience and personalize the content and advertising you see.
Visit our Privacy Policy to learn more. By continuing to use the site, you agree to this use of cookies and data.

Hourly Weather Silvania

Today, 5 August, Wednesday

Time Temperature Precipitation Wind Pressure Humidity
00:00 +19°C° 0 mm 1 mps 637 mmHg 76%
01:00 +19°C° 0 mm 1 mps 637 mmHg 76%
02:00 +19°C° 0 mm 1 mps 636 mmHg 76%
03:00 +18°C° 0 mm 1 mps 636 mmHg 77%
04:00 +18°C° 0 mm 1 mps 635 mmHg 77%
05:00 +19°C° 0 mm 1 mps 636 mmHg 77%
06:00 +19°C° 0 mm 1 mps 636 mmHg 76%
07:00 +20°C° 0 mm 1 mps 637 mmHg 75%
08:00 +21°C° 0 mm 1 mps 637 mmHg 72%
09:00 +23°C° 0 mm 1 mps 638 mmHg 68%
10:00 +24°C° 0 mm 1 mps 638 mmHg 64%
11:00 +24°C° 0.3 mm 1 mps 638 mmHg 64%
12:00 +25°C° 0.3 mm 1 mps 638 mmHg 63%
13:00 +25°C° 0.3 mm 1 mps 637 mmHg 63%
14:00 +25°C° 0.4 mm 1 mps 637 mmHg 63%
15:00 +25°C° 0.4 mm 1 mps 636 mmHg 63%
16:00 +25°C° 0.4 mm 1 mps 636 mmHg 63%
17:00 +24°C° 0.2 mm 1 mps 636 mmHg 67%
18:00 +22°C° 0.2 mm 1 mps 636 mmHg 72%
19:00 +20°C° 0.2 mm 2 mps 636 mmHg 76%
20:00 +20°C° 0 mm 2 mps 636 mmHg 75%
21:00 +19°C° 0 mm 2 mps 636 mmHg 75%
22:00 +19°C° 0 mm 2 mps 637 mmHg 74%
23:00 +19°C° 0 mm 2 mps 637 mmHg 74%

Tomorrow, 6 August, Thursday

Time Temperature Precipitation Wind Pressure Humidity
00:00 +18°C° 0 mm 2 mps 636 mmHg 74%
01:00 +18°C° 0 mm 2 mps 636 mmHg 74%
02:00 +19°C° 0 mm 1 mps 636 mmHg 74%
03:00 +19°C° 0 mm 1 mps 635 mmHg 74%
04:00 +19°C° 0 mm 1 mps 635 mmHg 74%
05:00 +19°C° 0 mm 1 mps 636 mmHg 75%
06:00 +20°C° 0 mm 1 mps 636 mmHg 75%
07:00 +20°C° 0 mm 1 mps 636 mmHg 76%
08:00 +21°C° 0 mm 1 mps 637 mmHg 73%
09:00 +22°C° 0 mm 1 mps 637 mmHg 70%
10:00 +23°C° 0 mm 1 mps 638 mmHg 68%
11:00 +24°C° 0.3 mm 1 mps 638 mmHg 67%
12:00 +24°C° 0.3 mm 1 mps 637 mmHg 66%
13:00 +25°C° 0.3 mm 1 mps 637 mmHg 65%
14:00 +25°C° 0.5 mm 1 mps 636 mmHg 65%
15:00 +25°C° 0.5 mm 1 mps 636 mmHg 65%
16:00 +25°C° 0.5 mm 1 mps 635 mmHg 66%
17:00 +23°C° 0.2 mm 1 mps 635 mmHg 70%
18:00 +22°C° 0.2 mm 1 mps 636 mmHg 74%
19:00 +20°C° 0.2 mm 2 mps 636 mmHg 78%
20:00 +20°C° 0 mm 2 mps 636 mmHg 77%
21:00 +20°C° 0 mm 2 mps 637 mmHg 76%
22:00 +20°C° 0 mm 2 mps 637 mmHg 74%
23:00 +19°C° 0 mm 2 mps 637 mmHg 75%

Day after tomorrow, 7 August, Friday

Time Temperature Precipitation Wind Pressure Humidity
00:00 +20°C° 0 mm 1 mps 637 mmHg 76%
01:00 +19°C° 0 mm 1 mps 636 mmHg 77%
02:00 +19°C° 0 mm 1 mps 636 mmHg 77%
03:00 +19°C° 0 mm 1 mps 636 mmHg 77%
04:00 +19°C° 0 mm 1 mps 636 mmHg 77%
05:00 +19°C° 0 mm 1 mps 636 mmHg 77%
06:00 +20°C° 0 mm 1 mps 636 mmHg 77%
07:00 +20°C° 0 mm 1 mps 637 mmHg 77%
08:00 +21°C° 0 mm 1 mps 637 mmHg 74%
09:00 +22°C° 0 mm 1 mps 638 mmHg 71%
10:00 +24°C° 0 mm 1 mps 638 mmHg 68%
11:00 +24°C° 0.4 mm 1 mps 638 mmHg 67%
12:00 +24°C° 0.4 mm 1 mps 638 mmHg 67%
13:00 +25°C° 0.4 mm 1 mps 637 mmHg 66%
14:00 +25°C° 0.4 mm 1 mps 637 mmHg 66%
15:00 +24°C° 0.4 mm 1 mps 636 mmHg 67%
16:00 +24°C° 0.4 mm 1 mps 636 mmHg 67%
17:00 +23°C° 0.1 mm 1 mps 636 mmHg 70%
18:00 +22°C° 0.1 mm 1 mps 636 mmHg 73%
19:00 +20°C° 0.1 mm 2 mps 636 mmHg 77%
20:00 +20°C° 0 mm 2 mps 637 mmHg 76%
21:00 +19°C° 0 mm 2 mps 637 mmHg 76%
22:00 +19°C° 0 mm 2 mps 637 mmHg 75%
23:00 +20°C° 0 mm 1 mps 637 mmHg 75%

8 August, Saturday

Time Temperature Precipitation Wind Pressure Humidity
00:00 +20°C° 0 mm 1 mps 637 mmHg 76%
01:00 +20°C° 0 mm 1 mps 637 mmHg 76%
02:00 +19°C° 0 mm 1 mps 636 mmHg 76%
03:00 +19°C° 0 mm 1 mps 636 mmHg 76%
04:00 +19°C° 0 mm 1 mps 636 mmHg 77%
05:00 +20°C° 0 mm 1 mps 637 mmHg 77%
06:00 +20°C° 0 mm 1 mps 637 mmHg 77%
07:00 +20°C° 0 mm 1 mps 638 mmHg 77%
08:00 +21°C° 0.1 mm 1 mps 638 mmHg 74%
09:00 +23°C° 0.1 mm 1 mps 639 mmHg 72%
10:00 +24°C° 0.1 mm 1 mps 639 mmHg 69%
11:00 +24°C° 0.4 mm 1 mps 639 mmHg 69%
12:00 +24°C° 0.4 mm 1 mps 638 mmHg 69%
13:00 +24°C° 0.4 mm 1 mps 638 mmHg 69%
14:00 +24°C° 0.5 mm 1 mps 637 mmHg 70%
15:00 +24°C° 0.5 mm 1 mps 636 mmHg 71%
16:00 +24°C° 0.5 mm 1 mps 636 mmHg 71%
17:00 +23°C° 0.1 mm 1 mps 636 mmHg 74%
18:00 +22°C° 0.1 mm 1 mps 636 mmHg 77%
19:00 +21°C° 0.1 mm 1 mps 636 mmHg 80%
20:00 +20°C° 0 mm 1 mps 637 mmHg 80%
21:00 +20°C° 0 mm 1 mps 637 mmHg 80%
22:00 +19°C° 0 mm 1 mps 637 mmHg 80%
23:00 +19°C° 0 mm 1 mps 637 mmHg 80%

9 August, Sunday

Time Temperature Precipitation Wind Pressure Humidity
00:00 +18°C° 0 mm 2 mps 637 mmHg 79%
01:00 +18°C° 0 mm 2 mps 636 mmHg 79%
02:00 +18°C° 0 mm 2 mps 636 mmHg 78%
03:00 +19°C° 0 mm 1 mps 636 mmHg 78%
04:00 +19°C° 0 mm 1 mps 636 mmHg 77%
05:00 +19°C° 0 mm 1 mps 636 mmHg 77%
06:00 +20°C° 0 mm 1 mps 637 mmHg 77%
07:00 +20°C° 0 mm 1 mps 637 mmHg 76%
08:00 +22°C° 0 mm 1 mps 638 mmHg 72%
09:00 +23°C° 0 mm 1 mps 638 mmHg 69%
10:00 +24°C° 0 mm 1 mps 639 mmHg 65%
11:00 +25°C° 0.2 mm 1 mps 638 mmHg 64%
12:00 +25°C° 0.2 mm 1 mps 638 mmHg 62%
13:00 +26°C° 0.2 mm 1 mps 637 mmHg 61%
14:00 +26°C° 0.3 mm 1 mps 636 mmHg 61%
15:00 +26°C° 0.3 mm 1 mps 636 mmHg 61%
16:00 +26°C° 0.3 mm 1 mps 635 mmHg 62%
17:00 +24°C° 0.1 mm 1 mps 635 mmHg 66%
18:00 +23°C° 0.1 mm 2 mps 635 mmHg 70%
19:00 +20°C° 0.1 mm 2 mps 635 mmHg 75%
20:00 +20°C° 0 mm 2 mps 636 mmHg 74%
21:00 +19°C° 0 mm 2 mps 636 mmHg 72%
22:00 +19°C° 0 mm 2 mps 637 mmHg 71%
23:00 +19°C° 0 mm 2 mps 636 mmHg 71%

10 August, Monday

Time Temperature Precipitation Wind Pressure Humidity
00:00 +19°C° 0 mm 2 mps 636 mmHg 70%
01:00 +18°C° 0 mm 2 mps 636 mmHg 70%
02:00 +18°C° 0 mm 2 mps 635 mmHg 71%
03:00 +18°C° 0 mm 2 mps 635 mmHg 71%
04:00 +17°C° 0 mm 2 mps 635 mmHg 71%
05:00 +19°C° 0 mm 1 mps 635 mmHg 72%
06:00 +20°C° 0 mm 1 mps 636 mmHg 72%
07:00 +20°C° 0 mm 1 mps 636 mmHg 72%
08:00 +22°C° 0 mm 1 mps 637 mmHg 68%
09:00 +24°C° 0 mm 1 mps 637 mmHg 63%
10:00 +25°C° 0 mm 1 mps 638 mmHg 59%
11:00 +26°C° 0.1 mm 1 mps 637 mmHg 57%
12:00 +27°C° 0.1 mm 1 mps 637 mmHg 55%
13:00 +27°C° 0.1 mm 1 mps 636 mmHg 53%
14:00 +27°C° 0.2 mm 1 mps 636 mmHg 54%
15:00 +27°C° 0.2 mm 1 mps 635 mmHg 55%
16:00 +27°C° 0.2 mm 1 mps 634 mmHg 56%
17:00 +26°C° 0.2 mm 1 mps 634 mmHg 61%
18:00 +24°C° 0.2 mm 2 mps 634 mmHg 66%
19:00 +21°C° 0.2 mm 2 mps 634 mmHg 71%
20:00 +21°C° 0 mm 2 mps 635 mmHg 71%
21:00 +20°C° 0 mm 2 mps 635 mmHg 70%
22:00 +20°C° 0 mm 2 mps 636 mmHg 69%
23:00 +20°C° 0 mm 2 mps 636 mmHg 69%
Show more